Вернуться в каталог

ANIK C3

TELESAT-5

АктивенСвязьGEO
NORAD 13652·PAYLOAD·🇨🇦 Canada

Запущен Nov 11, 1982 с Cape Canaveral Space Force Station

Loading…

TLE

СвежийSource: Space-Track

Эпоха: Sep 14, 2026, 11:37 UTC

1 13652U 82110C   26257.48411941  .00000089  00000-0  00000-0 0  9990
2 13652  12.3845 333.5780 0001380 245.6382 154.1334  0.99907813 47405

Отслеживайте ANIK C3 в реальном времени с AllMySat

Download on the App Store